Location: La Brionne
(46.1728°N, 1.7849°E)
Time: 18:34:38
(UTC+00:00)

Cosmos 1544 Rocket - Pass Details

Date: 01 November 2021
Orbit: 603 x 632 km, 82.5° (Epoch: 27 November)

Event Time Altitude Azimuth Distance (km) Brightness Sun altitude
Rises 17:57:14 0° 219° (SW) 2,912 7.7 -14.1°
Reaches altitude 10° 17:59:47 10° 233° (SW) 2,007 7.1 -14.5°
Maximum altitude 18:03:29 25° 289° (WNW) 1,273 5.9 -15.2°
Drops below altitude 10° 18:07:11 10° 345° (NNW) 2,010 6.3 -15.8°
Sets 18:09:45 0° 359° (N) 2,917 7.0 -16.2°
